This demonstration page uses our WeatherBlox Daily Observations layout. Learn more.

Left ArrowRight Arrow

Hourly Observations for September 6, 2018

Temp ( °F °C ) Dew Point ( °F °C ) Humidity (%) Winds ( mph kmh ) Pressure ( in mb ) Visibility ( mi km ) Precip ( " mm )
12:42 am 00:42 Cloudy 67 19.4 60 15.6 79 79 NNE 13 20 30.24 1024 10 16 N/A
12:54 am 00:54 Cloudy 67 19.4 59 15 76 76 NNE 10 17 30.26 1025 10 16 N/A
1:54 am 01:54 Cloudy 65 18.3 57 13.9 76 76 NNE 12 19 30.25 1025 10 16 N/A
2:54 am 02:54 Cloudy 64 17.8 57 13.9 78 78 NNE 8 13 30.25 1024 10 16 N/A
3:36 am 03:36 Cloudy 63 17.2 57 13.9 81 81 NNE 9 15 30.27 1025 10 16 N/A
3:54 am 03:54 Cloudy 63 17.2 57 13.9 81 81 NNE 10 17 30.26 1025 10 16 N/A
4:09 am 04:09 Cloudy 63 17.2 57 13.9 81 81 NNE 10 17 30.27 1025 10 16 N/A
4:42 am 04:42 Cloudy 63 17.2 57 13.9 81 81 NNE 12 19 30.27 1025 10 16 N/A
4:54 am 04:54 Cloudy 63 17.2 57 13.9 81 81 NNE 12 19 30.26 1025 10 16 N/A
5:20 am 05:20 Cloudy 62 16.7 57 13.9 84 84 NNE 9 15 30.27 1025 10 16 N/A
5:54 am 05:54 Cloudy 62 16.7 57 13.9 84 84 NNE 10 17 30.26 1025 10 16 N/A
6:54 am 06:54 Cloudy 62 16.7 57 13.9 84 84 NNE 9 15 30.27 1025 10 16 N/A
7:54 am 07:54 Cloudy 62 16.7 57 13.9 84 84 N 9 15 30.28 1026 10 16 N/A
8:20 am 08:20 Cloudy 62 16.7 58 14.4 86 86 NNE 9 15 30.27 1025 10 16 N/A
8:54 am 08:54 Cloudy 62 16.7 58 14.4 86 86 NNE 12 19 30.29 1026 10 16 N/A
9:52 am 09:52 Cloudy 66 19 59 15 78 78 NE 9 15 30.27 1025 10 16 N/A
9:54 am 09:54 Cloudy 66 18.9 59 15 78 78 ENE 10 17 30.29 1026 10 16 N/A
10:20 am 10:20 Partly Cloudy 65 18.3 59 15 81 81 NE 10 17 30.27 1025 10 16 N/A
10:30 am 10:30 Mostly Cloudy 68 20 61 16.1 78 78 NE 9 15 30.24 1024 10 16 N/A
10:54 am 10:54 Mostly Cloudy 69 20.6 61 16.1 76 76 NNE 8 13 30.29 1026 10 16 N/A
11:03 am 11:03 Mostly Sunny 71 21.7 62 16.7 73 73 NNE 7 11 30.24 1024 10 16 N/A
11:54 am 11:54 Mostly Sunny 72 22.2 63 17.2 73 73 NNE 9 15 30.27 1025 10 16 N/A
12:54 pm 12:54 Mostly Cloudy 75 23.9 64 17.8 69 69 NE 12 19 30.26 1025 10 16 N/A
1:45 pm 13:45 Mostly Cloudy 77 25 65 18.3 66 66 ENE 9 15 30.24 1024 10 16 N/A
1:54 pm 13:54 Mostly Cloudy 75 23.9 64 17.8 69 69 ENE 10 17 30.24 1024 10 16 N/A
2:20 pm 14:20 Cloudy 75 23.9 64 17.8 69 69 NE 12 19 30.24 1024 10 16 N/A
2:54 pm 14:54 Cloudy 75 23.9 64 17.8 69 69 E 10 17 30.23 1024 10 16 N/A
3:21 pm 15:21 Cloudy 75 23.9 63 17.2 66 66 E 16 26 30.21 1023 10 16 N/A
3:54 pm 15:54 Cloudy 75 23.9 63 17.2 66 66 ENE 15 24 30.21 1023 10 16 N/A
4:04 pm 16:04 Cloudy 75 23.9 63 17.2 66 66 ENE 14 22 30.21 1023 10 16 N/A
4:54 pm 16:54 Cloudy 75 23.9 63 17.2 66 66 ENE 12 19 30.20 1023 10 16 N/A
5:54 pm 17:54 Cloudy 74 23.3 64 17.8 71 71 ENE 10 17 30.20 1023 10 16 N/A
6:54 pm 18:54 Cloudy 74 23.3 64 17.8 71 71 ENE 8 13 30.19 1022 10 16 N/A
7:54 pm 19:54 Cloudy 73 22.8 64 17.8 74 74 ENE 9 15 30.19 1022 10 16 N/A
8:54 pm 20:54 Cloudy 72 22.2 63 17.2 73 73 ENE 8 13 30.20 1023 10 16 N/A
9:54 pm 21:54 Clear 69 20.6 63 17.2 81 81 ENE 7 11 30.21 1023 10 16 N/A
10:54 pm 22:54 Clear 69 20.6 63 17.2 81 81 ENE 8 13 30.22 1023 10 16 N/A
11:54 pm 23:54 Clear 68 20 62 16.7 81 81 ENE 12 19 30.22 1023 10 16 N/A

Powered by AerisWeather